User: anonymous   Login
Location: Del Oro Observatory
(38.3044°N, 104.8119°W)
Time: 10:15:07
(UTC-06:00)
Language:

Cosmos 1602 Rocket - Orbit

View from above orbital plane
View from above orbital plane
View from above satellite
View from above satellite

Ground track
Ground track

The orbit data is extracted from the following two-line orbital elements,

1 15332U 84105B   15088.87384197  .00000900  00000-0  10735-3 0  9999
2 15332 082.5353 225.3604 0021900 158.4938 011.1477 14.83021712646471
Epoch (UTC): 29 March 2015 20:58:19
Eccentricity: 0.0021900
inclination: 82.5353°
perigee height: 604 km
apogee height: 635 km
right ascension of ascending node: 225.3604°
argument of perigee: 158.4938°
revolutions per day: 14.83021712
mean anomaly at epoch: 11.1477°
orbit number at epoch: 64647

The dashed part of the orbit path shows where the satellite is in the earth's shadow,  

DLR